Theta_e
332 334 338 342 343 342 342 343 345 347 344 342 340 336 335 331 332 329 329 333 336 337 339 335 336 336 329 326 326 324 322 322 317 321 326 330 330 327 325 327 327 327 326
329 330 333 338 341 340 338 339 343 341 340 341 339 337 335 334 333 331 329 328 334 336 337 335 334 330 335 333 327 331 327 329 323 323 323 322 325 327 326 327 326 324 326
327 327 329 332 334 336 341 342 338 340 342 340 340 338 335 333 333 334 330 331 333 334 336 335 331 333 331 329 330 328 328 327 328 320 319 322 322 324 324 327 328 329 325
320 325 326 329 331 334 336 338 336 337 339 338 339 337 336 334 330 330 332 333 334 336 338 336 334 332 333 333 330 330 330 327 328 322 320 320 321 326 323 322 323 326 324
317 320 325 328 328 329 331 335 339 335 334 338 337 339 337 334 330 332 332 332 334 335 334 332 333 330 328 330 329 332 333 328 326 325 322 321 321 321 323 325 323 324 327
316 319 324 326 323 324 326 328 331 335 332 333 335 331 329 331 318 315 326 338 336 336 335 336 333 326 323 318 319 319 331 332 333 324 324 324 328 325 324 323 323 321 320
314 316 322 323 320 320 322 322 324 328 332 333 329 330 333 335 315 312 314 336 337 337 335 334 330 331 324 325 316 316 316 315 318 333 331 330 330 330 328 326 325 322 321
312 314 319 321 320 319 320 321 324 325 327 328 331 332 331 331 312 307 309 329 330 332 336 337 331 329 332 329 330 327 327 329 329 327 333 334 335 333 329 328 326 325 323
312 313 315 320 321 319 318 320 323 324 325 326 327 329 332 332 311 309 312 328 330 330 335 337 337 332 318 309 328 325 328 330 317 312 310 310 308 309 316 322 320 319 318
312 313 315 317 320 321 319 320 322 322 322 323 325 328 323 331 316 306 312 332 327 326 330 334 316 329 310 308 326 326 325 327 328 322 320 314 311 313 306 322 322 317 318
312 314 315 316 318 323 322 322 321 320 321 323 324 327 329 331 332 305 304 326 328 328 328 327 329 308 306 305 310 326 324 327 323 327 322 321 320 320 320 319 322 319 318
311 312 314 316 316 319 322 321 320 320 319 320 321 323 325 327 309 306 301 303 318 331 331 334 332 304 302 301 305 309 305 313 329 324 323 321 321 321 323 323 323 323 324
310 311 313 315 316 320 320 320 316 318 316 316 316 317 319 322 318 307 304 300 301 312 333 326 310 301 299 299 302 301 303 317 321 320 321 321 325 327 327 324 322 322 321
308 309 311 313 315 318 319 317 316 315 314 314 315 315 314 316 317 308 311 315 304 308 310 315 311 310 307 312 309 306 315 319 320 318 318 320 324 322 316 315 313 315 316
307 308 309 312 316 316 317 316 316 314 307 311 312 310 308 309 308 295 295 308 313 311 311 313 314 315 314 315 315 319 317 320 317 318 317 314 313 313 311 316 313 311 311
309 309 309 311 313 314 315 306 295 296 294 292 292 295 305 295 292 293 294 295 303 303 312 312 310 310 310 311 311 309 310 309 308 308 306 305 305 305 307 306 307 306 307
309 311 311 309 313 311 311 310 308 298 294 293 292 292 292 293 293 293 293 294 298 302 310 308 307 306 306 306 305 306 305 307 308 307 306 307 304 305 302 302 302 302 302
310 302 308 311 312 312 310 307 307 310 308 305 296 296 294 294 294 294 294 297 309 308 310 307 306 306 306 305 305 304 303 305 304 304 304 303 303 302 300 300 303 302 302
308 309 311 312 313 311 312 310 309 309 309 307 304 300 299 295 295 297 299 308 309 309 311 310 309 309 309 309 307 306 306 306 307 307 307 309 306 305 304 303 303 294 297
307 299 300 310 309 308 310 308 308 307 309 308 305 306 307 304 303 304 306 306 304 305 305 308 308 309 310 310 309 310 308 307 309 309 309 308 308 306 305 304 304 304 302
308 306 295 306 309 308 305 306 307 308 308 304 303 300 290 304 302 303 305 306 308 306 307 311 310 307 309 309 308 308 308 308 309 310 307 307 305 304 304 304 304 303 302
307 305 306 306 305 307 307 306 305 308 307 306 302 300 289 305 305 303 303 304 305 306 306 307 307 307 307 308 307 307 307 306 306 306 305 303 302 301 301 301 301 300 300
301 304 304 306 304 299 304 305 307 306 305 305 302 301 301 301 300 300 301 303 304 304 305 305 305 305 306 307 306 305 304 304 304 302 300 299 299 299 299 299 299 299 299
300 300 301 305 304 306 305 304 302 297 301 300 300 299 297 296 296 296 298 301 302 302 303 304 304 303 304 304 302 303 303 301 299 296 296 296 297 296 299 299 299 300 300
303 301 303 306 304 303 301 301 301 300 299 297 295 295 295 296 296 297 300 302 302 302 302 303 303 303 304 304 305 302 290 285 295 290 295 294 295 295 298 299 300 300 299
300 302 302 302 300 300 298 297 296 296 295 295 295 295 296 297 298 299 301 302 302 302 302 302 303 303 303 302 298 288 286 286 294 287 301 300 299 298 298 296 296 296 295
Wind_Speed
13 13 12 9 5 4 5 7 10 12 14 13 12 13 14 15 16 20 16 12 13 12 11 11 12 9 8 7 6 6 5 4 6 4 3 6 6 6 3 3 5 4 2
11 12 13 12 10 5 4 6 4 8 9 11 12 11 14 13 11 13 14 15 15 13 15 13 14 9 9 7 6 6 6 4 4 6 5 4 6 5 4 5 4 4 4
10 10 11 11 11 7 9 5 7 9 9 11 11 13 12 9 11 13 11 13 14 14 15 15 11 12 8 9 8 7 6 5 5 6 6 4 4 4 6 6 4 2 5
13 8 10 10 10 10 6 4 5 7 10 10 11 11 10 12 10 11 13 13 15 12 13 13 14 15 12 13 10 10 7 7 7 6 6 6 6 6 5 4 3 2 3
13 12 5 6 8 10 10 9 4 5 8 9 9 12 13 13 10 12 12 12 13 13 14 14 13 13 14 13 10 11 10 10 9 9 7 7 6 6 6 2 3 3 3
12 12 6 6 5 6 8 9 8 5 3 5 10 11 11 8 11 12 13 12 14 16 16 17 12 14 13 14 13 6 12 13 11 9 8 7 6 5 5 3 2 3 1
12 12 9 6 7 5 6 7 7 9 8 5 6 6 11 14 12 14 18 15 12 12 13 14 12 12 12 12 14 13 11 10 9 8 10 7 7 7 5 6 4 3 4
12 11 12 8 7 5 6 6 7 7 9 9 10 9 10 9 11 13 14 12 13 15 15 16 15 13 14 15 14 15 18 16 15 10 9 8 7 4 7 4 3 3 5
13 12 11 11 7 7 5 5 5 6 7 8 9 12 12 11 12 16 13 12 14 15 16 16 17 15 13 13 13 14 16 14 9 8 6 7 9 4 5 5 6 5 5
15 13 11 11 11 9 6 5 4 5 8 8 11 12 12 14 13 15 15 10 12 10 12 14 13 17 14 19 19 11 11 12 12 10 8 3 4 6 6 8 7 7 6
16 15 13 12 12 10 8 5 4 5 7 8 11 11 13 13 12 9 14 9 8 9 9 8 8 16 16 21 20 18 17 15 13 10 8 8 8 9 8 9 9 8 7
15 15 14 13 11 8 7 7 5 4 6 7 9 9 8 10 9 7 5 13 10 10 10 10 9 13 17 18 16 12 13 9 7 9 8 8 8 10 10 9 10 8 5
15 15 14 14 12 10 10 7 6 4 5 6 7 7 7 8 5 8 10 6 11 6 7 8 10 14 14 9 10 6 12 5 5 5 8 9 5 7 8 7 7 4 4
15 15 14 14 12 10 8 6 4 4 4 5 6 7 7 8 4 5 7 5 4 5 5 2 5 9 11 9 7 7 6 7 7 7 7 6 5 8 5 5 6 8 6
12 13 13 12 11 9 6 3 2 1 4 5 5 5 7 7 6 8 7 7 5 4 2 2 1 4 6 6 6 9 7 9 8 7 8 7 8 7 3 6 4 3 4
11 11 10 10 7 5 6 6 2 2 1 2 6 7 2 5 8 9 9 9 10 9 3 3 2 2 3 4 4 4 2 3 3 3 4 5 4 4 5 2 3 3 3
9 10 7 8 10 8 5 3 4 3 3 1 1 2 5 6 6 9 10 11 9 4 3 5 3 3 3 5 4 4 4 3 4 4 5 6 6 6 7 5 4 3 3
9 7 10 9 10 9 9 9 8 5 6 6 4 2 2 6 7 7 8 9 2 5 5 4 5 5 5 5 5 5 6 5 5 4 5 5 4 6 3 4 5 5 5
9 7 7 7 5 7 8 9 9 6 6 4 2 5 3 3 5 8 7 3 4 4 5 5 5 6 7 7 7 6 6 5 4 5 6 6 6 5 5 6 7 7 6
4 5 6 7 4 4 6 7 7 5 6 4 4 3 1 2 2 4 2 1 3 1 6 4 4 5 6 6 6 6 6 6 5 4 4 4 4 5 6 7 7 6 6
5 5 5 6 5 0 2 4 4 7 5 5 3 2 1 3 2 2 1 2 2 4 4 3 4 6 6 5 5 4 5 4 3 3 4 4 3 5 5 5 5 4 5
10 5 5 5 4 5 4 5 5 6 6 6 5 4 2 3 5 3 4 3 3 4 4 3 4 5 4 5 4 2 1 2 1 2 3 3 3 3 4 4 4 4 5
9 9 6 5 5 5 5 6 4 5 6 7 6 5 5 6 6 6 6 5 4 4 5 7 5 4 5 6 6 5 4 3 4 3 3 3 3 3 4 4 4 5 5
5 7 6 5 5 5 5 6 6 7 8 7 6 6 7 6 6 5 4 3 4 6 5 6 6 5 6 6 4 2 4 5 2 2 2 2 2 3 4 4 4 4 3
4 6 7 7 6 7 8 8 8 8 8 9 8 8 8 7 5 5 3 2 5 7 7 6 5 6 11 9 8 7 5 2 4 1 2 2 1 2 2 1 2 3 3
10 11 10 8 8 8 9 9 9 10 10 9 8 8 7 4 5 5 5 6 7 9 10 7 9 12 10 11 11 6 5 4 2 4 2 3 2 1 1 2 3 2 2
Wind_Direction
4 357 0 347 335 293 231 219 201 180 169 171 177 171 170 164 175 161 179 248 262 241 243 230 222 225 235 212 216 215 214 230 250 160 170 168 211 235 240 261 261 294 178
4 0 358 358 360 309 272 296 213 198 212 212 197 216 212 194 184 195 190 181 228 235 234 228 224 202 222 228 216 222 203 197 255 195 186 182 234 191 248 261 271 310 319
352 358 4 355 358 7 323 233 238 264 226 228 223 216 222 202 206 221 203 199 215 219 232 224 220 222 194 203 222 199 196 202 205 196 178 206 210 206 211 231 246 290 252
333 351 357 356 351 351 352 300 273 251 273 206 229 216 225 216 205 218 220 204 218 233 238 231 216 219 203 200 196 219 212 210 202 213 191 183 210 176 241 254 222 223 321
325 314 351 346 353 349 349 343 331 252 249 255 239 232 226 222 225 236 232 225 238 227 220 213 210 217 209 200 194 209 205 218 203 215 207 207 195 195 223 140 262 322 149
316 304 325 324 341 344 338 338 335 331 278 294 249 220 227 239 250 225 234 239 230 228 222 220 216 213 208 195 204 215 210 213 232 224 227 223 202 208 219 241 269 304 296
308 300 285 298 303 341 331 328 334 331 325 280 259 269 262 251 222 216 221 232 229 228 226 230 218 219 214 192 207 203 231 229 256 239 251 244 219 210 234 217 204 252 265
293 294 294 269 289 312 315 328 327 323 317 311 302 271 254 249 232 217 215 228 238 244 235 224 229 227 212 206 193 206 218 219 227 231 238 254 251 221 219 231 255 254 241
280 282 283 285 264 275 280 307 314 315 311 301 291 292 281 260 222 220 217 229 234 239 243 234 223 216 214 196 197 200 214 214 192 195 100 71 75 49 279 210 220 233 249
280 277 284 281 277 265 270 266 286 294 296 305 302 293 281 272 258 221 206 230 231 233 234 240 228 233 193 199 200 199 191 207 203 189 203 159 151 184 260 258 269 258 253
282 283 279 276 267 251 258 259 277 294 309 301 301 301 292 285 282 232 207 216 223 222 227 221 223 210 198 196 205 207 203 200 191 191 192 201 197 219 216 214 242 264 255
283 277 274 271 266 240 233 262 269 297 296 302 301 298 321 339 358 15 303 246 254 241 227 232 224 201 206 207 203 181 153 165 180 191 199 206 203 216 219 213 216 230 283
281 277 271 272 264 239 237 235 261 269 296 308 312 316 309 312 319 324 316 307 259 269 245 239 193 190 186 185 192 163 133 155 160 183 205 217 205 245 224 208 185 173 236
277 275 270 261 255 242 233 219 242 269 296 307 313 315 311 305 331 350 320 313 260 232 257 2 222 201 199 195 163 167 181 181 189 195 222 226 233 217 189 167 184 190 212
267 265 262 256 250 246 213 275 257 87 339 321 316 318 309 309 344 322 303 301 284 265 167 159 188 189 190 186 193 199 204 217 212 200 196 171 185 193 181 189 162 171 202
278 272 269 251 247 231 171 159 82 5 103 265 286 257 253 265 321 331 336 321 263 238 193 154 184 177 160 140 153 126 137 166 131 146 111 127 138 139 140 130 122 150 192
273 285 270 252 246 236 179 224 240 167 167 158 68 319 317 308 322 330 326 308 280 257 104 93 108 105 120 117 116 126 125 128 133 155 150 156 159 159 154 169 162 160 179
284 275 281 268 259 250 229 241 280 278 205 187 156 305 342 326 346 332 317 324 275 85 79 91 99 103 106 105 111 112 117 136 139 139 146 143 151 143 138 160 184 192 203
297 278 297 303 295 273 236 203 216 256 261 172 201 209 196 327 329 317 327 18 4 83 108 111 113 115 114 118 118 120 128 120 147 158 162 166 164 169 186 205 210 205 206
307 334 300 285 260 295 244 205 204 217 209 192 205 209 182 265 80 51 357 27 67 46 88 96 114 116 114 124 129 138 147 172 172 183 180 195 185 193 211 214 216 210 195
294 264 295 254 257 37 303 202 192 217 166 156 154 85 333 162 100 356 65 70 53 54 31 69 127 104 108 105 108 121 135 149 150 184 193 172 176 206 213 221 215 206 216
292 260 239 252 254 233 243 270 249 175 159 148 135 120 247 202 108 82 71 60 60 46 78 75 56 67 67 69 67 76 147 154 197 241 245 213 212 213 212 211 205 199 213
260 261 227 234 237 194 207 244 144 127 126 125 119 112 87 68 61 39 44 41 40 61 43 50 45 50 56 53 51 22 2 10 13 348 270 244 222 209 205 206 201 201 200
231 208 214 208 197 183 141 110 106 102 104 97 89 76 75 65 60 48 10 10 65 65 51 61 59 57 70 72 52 52 22 12 7 276 255 244 230 204 204 200 208 215 220
66 171 210 135 120 109 109 106 94 84 80 80 81 78 72 60 44 25 19 14 76 73 71 70 69 64 60 52 61 66 56 357 334 49 146 133 216 240 225 188 213 238 231
43 60 69 77 80 82 81 77 75 79 80 80 79 74 71 71 78 44 48 64 77 82 80 73 71 70 69 60 49 23 333 340 83 253 138 126 137 180 209 195 214 226 242